TimeEST,TemperatureF,Dew PointF,Humidity,Sea Level PressureIn,VisibilityMPH,Wind Direction,Wind SpeedMPH,Gust SpeedMPH,PrecipitationIn,Events,Conditions,WindDirDegrees,DateUTC
12:54 AM,50.0,32.0,50,29.98,-9999.0,West,16.1,28.8,N/A,,Unknown,280,2013-11-11 05:54:00
1:54 AM,48.9,30.9,50,30.00,-9999.0,WNW,18.4,26.5,N/A,,Unknown,290,2013-11-11 06:54:00
2:54 AM,46.9,30.9,54,30.04,-9999.0,WNW,18.4,35.7,N/A,,Unknown,290,2013-11-11 07:54:00
3:54 AM,46.0,32.0,58,30.07,-9999.0,WNW,11.5,26.5,N/A,,Unknown,300,2013-11-11 08:54:00
4:54 AM,45.0,28.9,53,30.10,-9999.0,WNW,13.8,34.5,N/A,,Unknown,290,2013-11-11 09:54:00
5:54 AM,45.0,28.0,52,30.12,-9999.0,WNW,16.1,25.3,N/A,,Unknown,290,2013-11-11 10:54:00
6:54 AM,45.0,28.9,53,30.14,-9999.0,WNW,16.1,26.5,N/A,,Unknown,300,2013-11-11 11:54:00
7:54 AM,46.0,30.9,56,30.16,-9999.0,WNW,13.8,21.9,N/A,,Unknown,300,2013-11-11 12:54:00
8:54 AM,46.0,28.9,51,30.17,-9999.0,WNW,13.8,23.0,N/A,,Unknown,300,2013-11-11 13:54:00
9:54 AM,48.0,30.9,52,30.17,-9999.0,WNW,12.7,20.7,N/A,,Unknown,300,2013-11-11 14:54:00
10:54 AM,48.0,30.0,50,30.14,-9999.0,WNW,10.4,17.3,N/A,,Unknown,290,2013-11-11 15:54:00
11:54 AM,48.9,30.9,50,30.13,-9999.0,West,9.2,-,N/A,,Unknown,280,2013-11-11 16:54:00
12:54 PM,48.9,32.0,52,30.11,-9999.0,West,12.7,18.4,N/A,,Unknown,260,2013-11-11 17:54:00
1:54 PM,50.0,30.9,48,30.09,-9999.0,WSW,10.4,-,N/A,,Unknown,250,2013-11-11 18:54:00
2:54 PM,51.1,33.1,50,30.08,-9999.0,SSW,9.2,-,N/A,,Unknown,210,2013-11-11 19:54:00
3:54 PM,50.0,34.0,54,30.08,-9999.0,SW,10.4,16.1,N/A,,Unknown,230,2013-11-11 20:54:00
4:54 PM,48.9,33.1,54,30.06,-9999.0,SW,10.4,18.4,N/A,,Unknown,230,2013-11-11 21:54:00
5:54 PM,50.0,36.0,59,30.05,-9999.0,SW,8.1,-,N/A,,Unknown,230,2013-11-11 22:54:00
6:54 PM,52.0,39.0,61,30.02,-9999.0,SW,11.5,20.7,N/A,,Unknown,220,2013-11-11 23:54:00
7:54 PM,53.1,39.9,61,30.01,-9999.0,SW,15.0,26.5,N/A,,Unknown,230,2013-11-12 00:54:00
8:54 PM,54.0,41.0,62,30.01,-9999.0,SW,15.0,24.2,N/A,,Unknown,230,2013-11-12 01:54:00
9:54 PM,53.1,37.0,55,30.00,-9999.0,WSW,10.4,24.2,N/A,,Unknown,240,2013-11-12 02:54:00
10:54 PM,53.1,39.9,61,29.98,-9999.0,SW,10.4,18.4,N/A,,Unknown,230,2013-11-12 03:54:00
11:54 PM,53.1,42.1,66,29.97,-9999.0,SW,10.4,18.4,N/A,,Unknown,230,2013-11-12 04:54:00